Location: Arbon
(43.0005°N, 0.7472°E)
Time: 22:42:37
(UTC+00:00)

Vanguard 1 Rocket - Visible Passes

Search period start: 25 November 2020 00:00
Search period end: 05 December 2020 00:00
Orbit: 656 x 4221 km, 34.3° (Epoch: 25 November)

Date Brightness Start Highest point End Pass type
(mag) Time Alt. Az. Time Alt. Az. Time Alt. Az.
25 Nov 11.0 00:51:24 31° ESE 00:51:24 31° ESE 01:00:29 10° E visible
25 Nov 10.1 03:08:42 51° SSW 03:13:38 58° SSE 03:27:34 10° E visible
25 Nov 9.7 05:25:59 15° W 05:42:15 59° SSW 05:52:10 10° ESE visible
25 Nov 11.5 23:44:15 15° E 23:44:15 15° E 23:46:49 10° E visible
26 Nov 10.4 02:01:33 52° SSE 02:01:33 52° SSE 02:16:02 10° E visible
26 Nov 9.9 04:18:50 34° WSW 04:29:36 63° S 04:41:37 10° ESE visible
26 Nov11.922:37:03E22:37:03E21:55:02Svisible
27 Nov 10.9 00:54:20 34° ESE 00:54:20 34° ESE 01:03:47 10° E visible
27 Nov 10.1 03:11:38 55° SSW 03:16:14 62° S 03:30:38 10° E visible
27 Nov 9.8 05:28:55 16° W 05:44:56 56° SSW 05:55:07 10° ESE visible
27 Nov 11.4 23:47:06 17° E 23:47:06 17° E 23:50:29 10° E visible
28 Nov 10.3 02:04:23 56° SE 02:04:23 56° SE 02:19:06 10° E visible
28 Nov 9.9 04:21:40 35° WSW 04:32:16 63° S 04:44:39 10° ESE visible
28 Nov11.822:39:50E22:39:50E21:57:15Svisible
29 Nov 10.8 00:57:07 37° ESE 00:57:07 37° ESE 01:06:54 10° E visible
29 Nov 10.1 03:14:24 57° SW 03:18:49 65° S 03:33:39 10° E visible
29 Nov 9.9 05:31:40 17° W 05:47:30 53° SSW 05:58:00 10° SE visible
29 Nov 11.4 23:49:49 19° E 23:49:49 19° E 23:53:48 10° E visible
30 Nov 10.3 02:07:06 60° SE 02:07:06 60° SE 02:22:06 10° E visible
30 Nov 9.9 04:24:22 36° WSW 04:34:53 62° SSW 04:47:37 10° ESE visible
30 Nov11.722:42:31E22:42:31E21:59:42Svisible
01 Dec 10.8 00:59:47 39° ESE 00:59:47 39° ESE 01:09:55 10° E visible
01 Dec 10.1 03:17:03 59° SW 03:21:22 66° S 03:36:38 10° ESE visible
01 Dec 10.0 05:34:20 17° W 05:49:57 49° SSW 06:00:45 10° SE visible
01 Dec 11.3 23:52:27 20° E 23:52:27 20° E 23:56:54 10° E visible
02 Dec 10.3 02:09:44 62° SE 02:09:44 62° SE 02:25:04 10° E visible
02 Dec 10.0 04:27:00 36° WSW 04:37:24 60° SSW 04:50:29 10° ESE visible
02 Dec 11.6 22:02:06 10° SSW 22:45:08 - E 22:02:21 10° SSW visible
03 Dec 10.8 01:02:24 41° ESE 01:02:24 41° ESE 01:12:51 10° E visible
03 Dec 10.1 03:19:40 59° SW 03:23:53 66° S 03:39:33 10° ESE visible
03 Dec 10.1 05:36:56 17° W 05:52:15 44° SSW 06:03:21 10° SE visible
03 Dec 11.4 20:52:57 10° S 20:55:07 13° S 20:55:07 13° S visible
03 Dec 11.3 23:55:04 21° E 23:55:04 21° E 23:59:51 10° E visible
04 Dec 10.3 02:12:20 64° SSE 02:12:20 64° SSE 02:27:59 10° E visible
04 Dec 10.1 04:29:36 36° WSW 04:39:48 56° SSW 04:53:16 10° SE visible
04 Dec 11.4 19:47:37 10° SSE 19:47:54 10° SE 19:47:54 10° SE visible
04 Dec 11.5 22:03:23 10° SSW 22:47:44 - E 22:05:11 14° SSW visible
